Location: Northcutt
(34.7304°N, 84.4305°W)
Time: 20:47:58
(UTC+00:00)

A-11 Canister half - Pass Details

Date: 08 October 2022
Orbit: 1524 x 1685 km, 47.3° (Epoch: 05 December)

Event Time Altitude Azimuth Distance (km) Brightness Sun altitude
Rises 23:32:33 0° 299° (WNW) 4,679 12.6 -5.0°
Reaches altitude 10° 23:35:47 10° 306° (NW) 3,704 11.9 -5.7°
Maximum altitude 23:44:41 46° 18° (NNE) 2,006 9.5 -7.5°
Enters shadow 23:53:35 11° 88° (E) 3,737 10.3 -9.3°
